Regional Weather Roundup
Issued by NWS

Home | Current Version | Previous Version | Graphics & Text | Print | Product List | Glossary On
Versions: 1 2 3 4 5 6 7 8 9 10 11 12 13 14 15 16 17 18 19 20 21 22 23 24 25 26 27 28 29 30 31 32 33 34 35 36 37 38 39 40 41 42 43 44 45 46 47 48 49 50
000
ASUS43 KBIS 021020
RWRND

NORTH DAKOTA REGIONAL WEATHER ROUNDUP
NATIONAL WEATHER SERVICE BISMARCK ND
500 AM CDT THU OCT 02 2014

NOTE: "FAIR" INDICATES FEW OR NO CLOUDS BELOW 12,000 FEET WITH NO
SIGNIFICANT WEATHER AND/OR OBSTRUCTIONS TO VISIBILITY.


NDZ001>003-009>011-017-021100-
NORTHWEST NORTH DAKOTA

CITY           SKY/WX    TMP DP  RH WIND       PRES   REMARKS
WILLISTON      CLOUDY    45  41  86 S8        29.84F
MINOT          CLEAR     44  41  89 SW10      29.82R
MINOT AFB      CLEAR     43  42  99 SW8       29.81S
$$

NDZ018>021-031>035-040>046-021100-
SOUTHWEST NORTH DAKOTA

CITY           SKY/WX    TMP DP  RH WIND       PRES   REMARKS
BISMARCK       PTCLDY    39  39 100 SW3       29.89R
DICKINSON      CLEAR     39  36  89 S3        29.89S
GARRISON         N/A     43  41  93 W8        29.85S
HETTINGER ARPT CLEAR     36  34  92 CALM      29.94S
$$

NDZ004>008-012>016-024-026-027-054-021100-
NORTHEAST NORTH DAKOTA

CITY           SKY/WX    TMP DP  RH WIND       PRES   REMARKS
GRAND FORKS    PTCLDY    48  45  89 SW6       29.79S
GRND FRKS AFB  MOCLDY    49  49  99 W9        29.80F
DEVILS LAKE    MOCLDY    48  41  76 W9        29.80R
$$

NDZ022-023-025-028>030-036>039-047>053-021100-
SOUTHEAST NORTH DAKOTA

CITY           SKY/WX    TMP DP  RH WIND       PRES   REMARKS
FARGO          PTCLDY    49  45  86 W9        29.83R
JAMESTOWN      CLOUDY    48  45  89 W6        29.84R
$$




USA.gov is the U.S. government's official web portal to all federal, state and local government web resources and services.